FW5647 Weather Reports


Display with metric or nautical units.
time (UTC)temp
F
wind
direction
speed
MPH
gust
MPH
rain 1hr
in
rain 24hr
in
rain mn
in
humidity
%
barometer
mb
20260506091541 46 316 0.0 3.0 0.00 0.08 0.00 64 1008.8
20260506090040 46 0 1.0 4.0 0.00 0.08 0.00 64 1008.7
20260506084543 46 326 0.0 2.0 0.00 0.08 0.00 64 1008.5
20260506083038 46 0 0.0 2.0 0.00 0.08 0.00 65 1008.6
20260506081537 46 323 1.0 4.0 0.00 0.08 0.00 64 1008.5
20260506073041 47 293 0.0 5.0 0.00 0.08 0.00 64 1008.7
20260506071542 47 275 2.0 4.0 0.00 0.08 0.00 62 1008.6
20260506061534 47 311 2.0 8.0 0.00 0.08 0.00 63 1008.7
20260506044535 48 271 2.0 3.0 0.00 0.18 0.00 62 1008.8
20260506043034 48 251 1.0 4.0 0.00 0.18 0.00 61 1008.5
20260506041537 48 255 0.0 3.0 0.00 0.18 0.00 62 1008.5
20260506040038 48 241 1.0 5.0 0.00 0.18 0.00 64 1008.5
20260506034535 48 264 0.0 1.0 0.00 0.18 0.18 63 1008.6
20260506033036 48 0 0.0 3.0 0.00 0.18 0.18 60 1008.5
20260506031533 48 248 1.0 2.0 0.00 0.18 0.18 59 1008.7
20260506030039 49 249 1.0 5.0 0.00 0.18 0.18 58 1008.8
20260506024546 49 236 0.0 2.0 0.00 0.18 0.18 57 1008.6
20260506023036 49 243 0.0 4.0 0.00 0.18 0.18 57 1008.8
20260506021533 49 264 1.0 3.0 0.00 0.18 0.18 57 1008.6
20260506020034 49 0 0.0 3.0 0.00 0.18 0.18 56 1008.6
20260506014543 49 235 1.0 4.0 0.00 0.18 0.18 54 1008.5
20260506013037 50 276 2.0 6.0 0.00 0.18 0.18 53 1008.2
20260506011540 50 305 2.0 4.0 0.00 0.18 0.18 53 1007.9
20260506010036 50 253 2.0 7.0 0.00 0.18 0.18 52 1007.9
20260506004533 51 245 2.0 10.0 0.00 0.18 0.18 52 1008.1
20260506003037 51 325 3.0 12.0 0.00 0.18 0.18 52 1008.0
20260506001538 51 273 3.0 7.0 0.00 0.18 0.18 52 1008.0
20260506000037 52 268 3.0 9.0 0.00 0.18 0.18 51 1007.8
20260505234541 52 255 3.0 8.0 0.00 0.20 0.18 52 1007.6
20260505233038 52 283 3.0 8.0 0.00 0.20 0.18 53 1007.3
20260505231549 52 274 3.0 7.0 0.00 0.20 0.18 54 1007.2
20260505230048 52 267 3.0 9.0 0.00 0.20 0.18 54 1007.3
20260505224541 53 285 3.0 8.0 0.00 0.20 0.18 55 1007.4
20260505223040 53 264 3.0 12.0 0.00 0.20 0.18 55 1007.4
20260505221540 53 290 4.0 9.0 0.00 0.20 0.18 55 1007.5
20260505220036 53 224 3.0 10.0 0.00 0.20 0.18 56 1007.4
20260505214534 53 309 6.0 13.0 0.00 0.20 0.18 53 1007.4
20260505213032 53 302 5.0 9.0 0.00 0.20 0.18 60 1007.5
20260505211534 53 278 4.0 12.0 0.00 0.20 0.18 63 1007.3
20260505210038 53 280 3.0 6.0 0.00 0.20 0.18 71 1007.5
20260505204540 53 246 2.0 8.0 0.00 0.20 0.18 74 1007.5
20260505203035 52 248 2.0 8.0 0.00 0.20 0.18 75 1007.7
20260505201534 52 285 1.0 11.0 0.00 0.20 0.18 77 1007.5
20260505200035 52 279 2.0 7.0 0.00 0.20 0.18 77 1007.5
20260505194532 52 224 2.0 9.0 0.00 0.20 0.18 77 1007.5
20260505193032 51 274 2.0 7.0 0.00 0.20 0.18 78 1007.7
20260505191534 51 257 3.0 11.0 0.00 0.20 0.18 78 1008.0
20260505190036 50 243 4.0 8.0 0.00 0.20 0.18 79 1007.9
20260505184535 50 283 3.0 10.0 0.00 0.20 0.18 80 1007.7
20260505183036 51 307 4.0 12.0 0.00 0.20 0.18 81 1007.8
20260505181531 50 262 2.0 9.0 0.00 0.20 0.18 83 1007.5
20260505180045 49 254 4.0 9.0 0.01 0.20 0.18 83 1007.5
20260505174544 49 298 4.0 8.0 0.01 0.20 0.18 86 1007.5
20260505173032 48 218 3.0 8.0 0.02 0.20 0.18 87 1007.3
20260505171533 48 272 1.0 10.0 0.04 0.20 0.18 87 1006.9
20260505170032 49 274 1.0 5.0 0.06 0.19 0.17 87 1007.0
20260505164535 48 248 2.0 7.0 0.07 0.19 0.17 87 1007.2
20260505163035 48 241 3.0 11.0 0.06 0.18 0.16 85 1007.4
20260505161534 49 232 3.0 8.0 0.04 0.16 0.14 83 1007.6
20260505153033 53 300 5.0 16.0 0.00 0.12 0.10 69 1007.1
20260505151536 54 300 4.0 10.0 0.00 0.12 0.10 66 1006.8
20260505124539 57 238 3.0 9.0 0.00 0.12 0.10 72 1003.7
20260505123037 57 269 5.0 10.0 0.00 0.12 0.10 74 1003.7
20260505121535 56 274 4.0 9.0 0.00 0.12 0.10 79 1003.7
20260505120041 55 277 3.0 8.0 0.00 0.12 0.10 83 1003.9
20260505114535 55 288 2.0 11.0 0.00 0.12 0.10 87 1003.7
20260505113034 55 314 3.0 14.0 0.00 0.12 0.10 88 1003.1
20260505111532 55 283 4.0 10.0 0.00 0.12 0.10 88 1003.0
20260505101554 55 276 2.0 9.0 0.00 0.12 0.10 87 1002.0
20260505100054 55 241 3.0 7.0 0.00 0.12 0.10 87 1002.1
20260505094534 55 224 2.0 9.0 0.00 0.12 0.10 86 1001.9
20260505093031 55 244 3.0 9.0 0.00 0.12 0.10 86 1001.6